Location: Le Rocchette
(44.3500°N, 7.8333°E)
Time: 05:31:40
(UTC+00:00)

SL-4 R/B - Pass Details

Date: 17 November 2019
Orbit: 428 x 667 km, 51.6° (Epoch: 08 December)

Event Time Altitude Azimuth Distance (km) Brightness Sun altitude
Exits shadow 03:59:46 40° 11° (N) 978 3.2 -26.1°
Maximum altitude 03:59:52 40° 14° (NNE) 977 3.3 -26.1°
Drops below altitude 10° 04:04:26 10° 84° (E) 2,085 6.0 -25.3°
Sets 04:06:54 0° 92° (E) 2,984 7.2 -24.9°
